TimeCST,TemperatureF,Dew PointF,Humidity,Sea Level PressureIn,VisibilityMPH,Wind Direction,Wind SpeedMPH,Gust SpeedMPH,PrecipitationIn,Events,Conditions,WindDirDegrees,DateUTC
12:00 AM,17.6,17.6,100,29.98,0.2,Calm,Calm,-,N/A,Fog,Light Freezing Fog,0,2012-12-08 06:00:00
12:20 AM,19.4,19.4,100,29.98,0.8,Calm,Calm,-,N/A,,Overcast,0,2012-12-08 06:20:00
12:40 AM,19.4,19.4,100,29.98,0.5,Calm,Calm,-,N/A,Fog,Light Freezing Fog,0,2012-12-08 06:40:00
1:00 AM,19.4,19.4,100,29.97,0.2,ESE,3.5,-,N/A,Fog,Light Freezing Fog,110,2012-12-08 07:00:00
1:20 AM,15.8,15.8,100,29.98,0.2,East,3.5,-,N/A,Fog,Light Freezing Fog,100,2012-12-08 07:20:00
1:40 AM,15.8,15.8,100,29.97,0.2,East,3.5,-,N/A,Fog,Light Freezing Fog,90,2012-12-08 07:40:00
2:00 AM,15.8,15.8,100,29.98,0.2,WSW,4.6,-,N/A,Fog,Light Freezing Fog,250,2012-12-08 08:00:00
2:40 AM,17.6,17.6,100,29.98,0.2,Calm,Calm,-,N/A,Fog,Light Freezing Fog,0,2012-12-08 08:40:00
3:00 AM,19.4,19.4,100,29.98,0.5,Calm,Calm,-,N/A,Fog,Light Freezing Fog,0,2012-12-08 09:00:00
3:20 AM,19.4,19.4,100,29.97,1.2,ENE,3.5,-,N/A,,Overcast,70,2012-12-08 09:20:00
3:40 AM,19.4,19.4,100,29.97,5.0,Calm,Calm,-,N/A,,Overcast,0,2012-12-08 09:40:00
4:00 AM,21.2,21.2,100,29.96,8.0,Calm,Calm,-,N/A,,Overcast,0,2012-12-08 10:00:00
4:20 AM,23.0,23.0,100,29.95,10.0,East,4.6,-,N/A,,Overcast,80,2012-12-08 10:20:00
5:00 AM,23.0,23.0,100,29.94,10.0,Calm,Calm,-,N/A,,Overcast,0,2012-12-08 11:00:00
5:20 AM,23.0,23.0,100,29.94,1.8,SE,6.9,-,N/A,,Overcast,140,2012-12-08 11:20:00
5:40 AM,23.0,23.0,100,29.94,0.5,South,10.4,-,N/A,Fog,Light Freezing Fog,180,2012-12-08 11:40:00
6:00 AM,23.0,23.0,100,29.94,0.2,South,9.2,-,N/A,Fog,Light Freezing Fog,170,2012-12-08 12:00:00
6:20 AM,23.0,23.0,100,29.94,0.2,SSE,8.1,-,N/A,Fog,Light Freezing Fog,160,2012-12-08 12:20:00
6:40 AM,23.0,23.0,100,29.94,0.2,SE,10.4,-,N/A,Fog,Light Freezing Fog,140,2012-12-08 12:40:00
7:00 AM,23.0,23.0,100,29.94,0.2,SSE,10.4,-,N/A,Fog,Light Freezing Fog,160,2012-12-08 13:00:00
7:20 AM,23.0,23.0,100,29.95,0.5,South,9.2,-,N/A,Fog,Light Freezing Fog,170,2012-12-08 13:20:00
7:40 AM,24.8,24.8,100,29.94,0.8,South,10.4,-,N/A,,Overcast,170,2012-12-08 13:40:00
8:00 AM,24.8,24.8,100,29.95,3.0,South,12.7,-,N/A,,Overcast,190,2012-12-08 14:00:00
8:20 AM,24.8,24.8,100,29.95,9.0,South,13.8,-,N/A,,Overcast,180,2012-12-08 14:20:00
8:40 AM,24.8,24.8,100,29.94,10.0,South,10.4,-,N/A,,Overcast,180,2012-12-08 14:40:00
9:00 AM,24.8,24.8,100,29.94,9.0,South,10.4,-,N/A,,Overcast,180,2012-12-08 15:00:00
9:20 AM,24.8,24.8,100,29.94,10.0,South,10.4,-,N/A,,Overcast,170,2012-12-08 15:20:00
9:40 AM,24.8,24.8,100,29.93,10.0,South,11.5,-,N/A,,Overcast,170,2012-12-08 15:40:00
10:00 AM,24.8,24.8,100,29.92,9.0,SSE,12.7,-,N/A,,Overcast,150,2012-12-08 16:00:00
10:20 AM,24.8,24.8,100,29.92,9.0,SSE,13.8,20.7,N/A,,Overcast,160,2012-12-08 16:20:00
10:40 AM,26.6,26.6,100,29.91,10.0,SSE,13.8,19.6,N/A,,Overcast,150,2012-12-08 16:40:00
11:00 AM,26.6,26.6,100,29.90,10.0,SSE,13.8,21.9,N/A,,Overcast,150,2012-12-08 17:00:00
11:20 AM,26.6,26.6,100,29.89,10.0,SE,17.3,25.3,N/A,,Mostly Cloudy,140,2012-12-08 17:20:00
11:40 AM,26.6,26.6,100,29.88,10.0,SSE,18.4,26.5,N/A,,Mostly Cloudy,150,2012-12-08 17:40:00
12:00 PM,26.6,26.6,100,29.88,10.0,SSE,19.6,25.3,N/A,,Mostly Cloudy,150,2012-12-08 18:00:00
12:20 PM,26.6,26.6,100,29.87,10.0,SSE,18.4,-,N/A,,Scattered Clouds,150,2012-12-08 18:20:00
12:40 PM,26.6,26.6,100,29.87,10.0,South,13.8,-,N/A,,Mostly Cloudy,170,2012-12-08 18:40:00
1:00 PM,26.6,26.6,100,29.87,10.0,SSE,15.0,-,N/A,,Overcast,160,2012-12-08 19:00:00
1:20 PM,26.6,26.6,100,29.86,10.0,South,12.7,-,N/A,,Overcast,170,2012-12-08 19:20:00
1:40 PM,26.6,26.6,100,29.86,10.0,South,13.8,-,N/A,,Overcast,170,2012-12-08 19:40:00
2:00 PM,26.6,26.6,100,29.85,10.0,South,13.8,-,N/A,,Overcast,170,2012-12-08 20:00:00
2:20 PM,26.6,26.6,100,29.84,10.0,SSE,12.7,-,N/A,,Overcast,160,2012-12-08 20:20:00
2:40 PM,26.6,26.6,100,29.83,10.0,South,17.3,24.2,N/A,,Overcast,170,2012-12-08 20:40:00
3:00 PM,26.6,26.6,100,29.82,10.0,SSE,15.0,21.9,N/A,,Overcast,160,2012-12-08 21:00:00
3:20 PM,26.6,26.6,100,29.82,10.0,SSE,16.1,21.9,N/A,,Overcast,150,2012-12-08 21:20:00
3:40 PM,26.6,26.6,100,29.82,8.0,SSE,18.4,25.3,N/A,,Mostly Cloudy,150,2012-12-08 21:40:00
4:00 PM,26.6,26.6,100,29.80,1.5,SE,17.3,24.2,N/A,Snow,Light Snow,130,2012-12-08 22:00:00
4:20 PM,24.8,24.8,100,29.81,1.2,SSE,16.1,24.2,0.01,Snow,Light Snow,150,2012-12-08 22:20:00
4:40 PM,24.8,24.8,100,29.80,0.5,SSE,18.4,24.2,0.03,Snow,Snow,150,2012-12-08 22:40:00
5:00 PM,26.6,26.6,100,29.79,1.2,SE,18.4,24.2,0.04,Snow,Light Snow,140,2012-12-08 23:00:00
5:20 PM,26.6,26.6,100,29.79,3.0,SE,20.7,26.5,N/A,Snow,Light Snow,140,2012-12-08 23:20:00
5:40 PM,26.6,26.6,100,29.79,10.0,SSE,20.7,26.5,N/A,,Overcast,150,2012-12-08 23:40:00
6:00 PM,26.6,26.6,100,29.78,10.0,SE,19.6,26.5,N/A,,Overcast,140,2012-12-09 00:00:00
6:20 PM,26.6,26.6,100,29.78,3.0,SE,21.9,27.6,N/A,,Overcast,140,2012-12-09 00:20:00
6:40 PM,26.6,26.6,100,29.77,3.0,SE,23.0,31.1,N/A,Rain,Freezing Rain,140,2012-12-09 00:40:00
7:00 PM,26.6,26.6,100,29.76,0.8,SSE,21.9,28.8,N/A,Rain,Freezing Rain,150,2012-12-09 01:00:00
7:20 PM,26.6,26.6,100,29.76,0.8,SSE,20.7,27.6,0.03,Snow,Light Snow,150,2012-12-09 01:20:00
7:40 PM,28.4,28.4,100,29.77,6.0,SSE,19.6,25.3,0.03,Rain,Freezing Rain,150,2012-12-09 01:40:00
8:00 PM,28.4,28.4,100,29.77,1.5,SSE,16.1,23.0,0.03,,Overcast,160,2012-12-09 02:00:00
8:20 PM,28.4,28.4,100,29.77,0.5,South,19.6,25.3,0.04,Snow,Snow,170,2012-12-09 02:20:00
8:40 PM,28.4,28.4,100,29.76,0.5,SSE,21.9,26.5,0.12,Snow,Snow,160,2012-12-09 02:40:00
9:00 PM,28.4,28.4,100,29.76,2.0,South,26.5,35.7,0.17,Snow,Light Snow,170,2012-12-09 03:00:00
9:20 PM,30.2,30.2,100,29.76,5.0,South,21.9,27.6,N/A,,Overcast,170,2012-12-09 03:20:00
9:40 PM,30.2,30.2,100,29.76,5.0,South,21.9,32.2,N/A,,Overcast,170,2012-12-09 03:40:00
10:00 PM,30.2,30.2,100,29.77,5.0,South,23.0,32.2,N/A,,Overcast,180,2012-12-09 04:00:00
10:20 PM,30.2,30.2,100,29.77,10.0,South,20.7,26.5,N/A,,Overcast,180,2012-12-09 04:20:00
10:40 PM,32.0,32.0,100,29.76,10.0,South,21.9,27.6,N/A,,Mostly Cloudy,170,2012-12-09 04:40:00
11:00 PM,32.0,32.0,100,29.77,10.0,South,17.3,25.3,N/A,,Overcast,180,2012-12-09 05:00:00
11:20 PM,32.0,32.0,100,29.76,10.0,South,15.0,26.5,N/A,,Overcast,170,2012-12-09 05:20:00
11:40 PM,32.0,32.0,100,29.78,10.0,South,13.8,23.0,N/A,,Overcast,180,2012-12-09 05:40:00